Milford, UT

11:06 PM MDT on August 25, 2016 (GMT -0600)
Milford Municipal

Weather History for KMLF - March, 2013

Change the Weather History Date:

Saturday, March 16, 2013

  Actual Average Record
Temperature  
Mean Temperature 52 °F -  
Max Temperature 64 °F 56 °F 73 °F (2007)
Min Temperature 42 °F 26 °F 19 °F (2005)
Degree Days  
Heating Degree Days 12    
Growing Degree Days 2 (Base 50)    
Moisture  
Dew Point 31 °F    
Average Humidity 49    
Maximum Humidity 73    
Minimum Humidity 12    
Precipitation  
Precipitation 0.00 in - - ()
Sea Level Pressure  
Sea Level Pressure 29.87 in    
Wind  
Wind Speed 6 mph (North)    
Max Wind Speed 17 mph    
Max Gust Speed 23 mph    
Visibility 8 miles    
Events      
Averages and records for this station are not official NWS values.
T = Trace of Precipitation, MM = Missing Value Source: NWS Daily Summary

Daily Weather History Graph

Daily Weather History Graph

Search for Another Location

Airport or City:

Trip Planner

Search our weather history database for the weather conditions in past years. The results will help you decide how hot, cold, wet, or windy it might be!

Date:

Astronomy

Mar. 16, 2013 Rise Set
Actual Time 7:41 AM MDT 7:40 PM MDT
Civil Twilight 7:14 AM MDT 8:06 PM MDT
Nautical Twilight 6:44 AM MDT 8:37 PM MDT
Astronomical Twilight 6:13 AM MDT 9:08 PM MDT
Moon 10:17 AM MDT (3/16) No Moon Set
Length of Visible Light 12h 52m
Length of Day
11h 59m
Waxing Crescent, 23% of the Moon is Illuminated
Mar 16
Waxing Crescent
Mar 19
First Quarter
Mar 27
Full
Apr 2
Last Quarter
Apr 10
New

Hourly Weather History & Observations

Time (MDT) Temp. Windchill Dew Point Humidity Pressure Visibility Wind Dir Wind Speed Gust Speed Precip Events Conditions
12:29 AM 48.2 °F - 33.8 °F 58% 29.98 in 0.2 mi NNW 3.5 mph - N/A   Haze
12:38 AM 50.0 °F - 33.8 °F 54% 29.99 in 2.5 mi NNW 6.9 mph - N/A   Haze
12:43 AM 50.0 °F - 33.8 °F 54% 29.99 in 10.0 mi NW 6.9 mph - N/A   Clear
12:52 AM 48.9 °F - 34.0 °F 56% 29.86 in 10.0 mi NNW 5.8 mph - N/A   Clear
1:52 AM 46.0 °F 44.8 °F 35.1 °F 66% 29.85 in 10.0 mi NW 3.5 mph - N/A   Partly Cloudy
2:52 AM 46.9 °F - 36.0 °F 66% 29.85 in 10.0 mi NE 5.8 mph - N/A   Scattered Clouds
3:32 AM 46.4 °F - 35.6 °F 66% 29.98 in 0.8 mi Calm Calm - N/A   Haze
3:37 AM 46.4 °F 43.5 °F 35.6 °F 66% 29.98 in 2.5 mi ENE 5.8 mph - N/A   Haze
3:42 AM 46.4 °F 44.3 °F 35.6 °F 66% 29.98 in 10.0 mi NE 4.6 mph - N/A   Clear
3:52 AM 46.9 °F - 36.0 °F 66% 29.84 in 10.0 mi NNE 3.5 mph - N/A   Partly Cloudy
4:52 AM 48.0 °F - 35.1 °F 61% 29.84 in 10.0 mi NW 8.1 mph - N/A   Mostly Cloudy
5:52 AM 48.0 °F - 35.1 °F 61% 29.83 in 10.0 mi WNW 6.9 mph - N/A   Scattered Clouds
6:52 AM 44.1 °F - 36.0 °F 73% 29.87 in 10.0 mi Calm Calm - N/A   Clear
7:41 AM 44.6 °F 40.2 °F 35.6 °F 71% 29.99 in 1.0 mi North 8.1 mph - N/A   Haze
7:47 AM 44.6 °F 40.2 °F 35.6 °F 71% 29.99 in 0.5 mi North 8.1 mph - N/A   Haze
7:52 AM 44.1 °F 40.1 °F 35.1 °F 71% 29.89 in 1.0 mi North 6.9 mph - N/A   Haze
7:55 AM 44.6 °F 40.7 °F 35.6 °F 71% 29.99 in 4.0 mi North 6.9 mph - N/A   Haze
8:52 AM 46.0 °F 44.8 °F 36.0 °F 68% 29.92 in 10.0 mi North 3.5 mph - N/A   Clear
9:52 AM 53.1 °F - 34.0 °F 48% 29.91 in 10.0 mi NNE 3.5 mph - N/A   Scattered Clouds
10:52 AM 57.0 °F - 30.9 °F 37% 29.92 in 10.0 mi North 17.3 mph - N/A   Clear
11:52 AM 59.0 °F - 33.1 °F 38% 29.91 in 10.0 mi North 16.1 mph 23.0 mph N/A   Clear
12:52 PM 60.1 °F - 28.9 °F 31% 29.89 in 10.0 mi North 13.8 mph 18.4 mph N/A   Clear
1:52 PM 62.1 °F - 28.9 °F 29% 29.89 in 10.0 mi NNE 6.9 mph 20.7 mph N/A   Clear
2:52 PM 63.0 °F - 27.0 °F 26% 29.84 in 10.0 mi NNE 11.5 mph - N/A   Clear
3:52 PM 64.0 °F - 27.0 °F 25% 29.81 in 10.0 mi NNE 8.1 mph 20.7 mph N/A   Clear
4:52 PM 64.0 °F - 25.0 °F 23% 29.79 in 10.0 mi NE 11.5 mph - N/A   Clear
5:52 PM 63.0 °F - 24.1 °F 23% 29.78 in 10.0 mi NE 9.2 mph - N/A   Clear
6:24 PM 62.6 °F - 24.8 °F 24% 29.88 in 0.5 mi NE 10.4 mph - N/A   Haze
6:37 PM 62.6 °F - 24.8 °F 24% 29.88 in 5.0 mi NE 6.9 mph - N/A   Haze
6:52 PM 62.1 °F - 24.1 °F 23% 29.78 in 10.0 mi NNE 5.8 mph - N/A   Clear
7:52 PM 51.1 °F - 28.9 °F 43% 29.79 in 10.0 mi North 4.6 mph - N/A   Clear
8:52 PM 46.9 °F - 30.0 °F 52% 29.80 in 10.0 mi NNW 5.8 mph - N/A   Clear
9:32 PM 44.6 °F - 30.2 °F 57% 29.86 in 0.2 mi Calm Calm - N/A   Haze
9:42 PM 46.4 °F - 28.4 °F 50% 29.86 in 4.0 mi Calm Calm - N/A   Haze
9:52 PM 44.1 °F 39.5 °F 28.9 °F 55% 29.78 in 10.0 mi WNW 8.1 mph - N/A   Clear
10:52 PM 43.0 °F 38.2 °F 28.9 °F 58% 29.76 in 10.0 mi West 8.1 mph - N/A   Clear
10:55 PM 42.8 °F 37.0 °F 28.4 °F 57% 29.84 in 0.5 mi West 10.4 mph - N/A   Haze
11:08 PM 44.6 °F 39.7 °F 28.4 °F 53% 29.84 in 2.5 mi WNW 9.2 mph - N/A   Haze
11:13 PM 42.8 °F 37.5 °F 28.4 °F 57% 29.84 in 10.0 mi West 9.2 mph - N/A   Clear
11:52 PM 42.1 °F 36.6 °F 28.9 °F 60% 29.75 in 10.0 mi WNW 9.2 mph - N/A   Clear